Location: Newark
(13.6797°N, 8.5297°E)
Time: 23:59:49
(UTC+00:00)

LightSail 2 - Pass Details

Date: 07 December 2019
Orbit: 705 x 719 km, 24.0° (Epoch: 28 January)

Event Time Altitude Azimuth Distance (km) Brightness Sun altitude
Rises 18:53:27 0° 297° (WNW) 3,091 9.1 -27.1°
Reaches altitude 10° 18:55:59 10° 304° (WNW) 2,169 8.1 -27.7°
Enters shadow 18:58:55 30° 326° (NNW) 1,249 6.5 -28.4°
